| time (UTC) | temp C | wind direction | speed KPH | gust KPH | rain 1hr cm | rain 24hr cm | rain mn cm | humidity % | barometer mb |
| 20260903005516 | 15 | 248 | 4.8 | 9.7 | 0.00 | 0.23 | 0.00 | 89 | 1013.3 |
| 20260903004516 | 15 | 238 | 8.0 | 9.7 | 0.00 | 0.23 | 0.00 | 88 | 1013.4 |
| 20260903003515 | 15 | 238 | 4.8 | 12.9 | 0.00 | 0.23 | 0.00 | 88 | 1013.5 |
| 20260903002515 | 15 | 251 | 11.3 | 19.3 | 0.00 | 0.23 | 0.00 | 87 | 1013.5 |
| 20260903000515 | 15 | 263 | 8.0 | 12.9 | 0.00 | 0.23 | 0.00 | 88 | 1013.6 |
| 20260902235515 | 15 | 254 | 8.0 | 19.3 | 0.00 | 0.23 | 0.00 | 87 | 1013.6 |
| 20260902224515 | 15 | 247 | 9.7 | 20.9 | 0.00 | 0.23 | 0.00 | 88 | 1013.7 |
| 20260902221511 | 15 | 240 | 8.0 | 16.1 | 0.00 | 0.23 | 0.00 | 90 | 1013.8 |
| 20260902215515 | 15 | 241 | 11.3 | 20.9 | 0.00 | 0.33 | 0.23 | 91 | 1013.6 |
| 20260902213515 | 15 | 238 | 9.7 | 19.3 | 0.00 | 0.33 | 0.23 | 93 | 1013.5 |
| 20260902212515 | 15 | 243 | 11.3 | 20.9 | 0.00 | 0.33 | 0.23 | 93 | 1013.4 |
| 20260902211516 | 15 | 235 | 9.7 | 20.9 | 0.00 | 0.33 | 0.23 | 93 | 1013.5 |
| 20260902210515 | 15 | 229 | 11.3 | 19.3 | 0.00 | 0.33 | 0.23 | 93 | 1013.5 |
| 20260902203515 | 15 | 232 | 9.7 | 19.3 | 0.00 | 0.33 | 0.23 | 93 | 1013.6 |
| 20260902194516 | 15 | 232 | 14.5 | 22.5 | 0.00 | 0.33 | 0.23 | 92 | 1013.6 |
| 20260902193514 | 15 | 225 | 11.3 | 22.5 | 0.00 | 0.33 | 0.23 | 92 | 1013.6 |
| 20260902191514 | 15 | 239 | 12.9 | 22.5 | 0.00 | 0.33 | 0.23 | 92 | 1013.6 |
| 20260902190514 | 15 | 232 | 11.3 | 22.5 | 0.00 | 0.33 | 0.23 | 92 | 1013.6 |
| 20260902185516 | 15 | 232 | 14.5 | 25.7 | 0.00 | 0.33 | 0.23 | 92 | 1013.6 |
| 20260902184515 | 15 | 249 | 14.5 | 22.5 | 0.00 | 0.33 | 0.23 | 92 | 1013.5 |
| 20260902183513 | 16 | 233 | 11.3 | 20.9 | 0.00 | 0.33 | 0.23 | 92 | 1013.3 |
| 20260902181515 | 16 | 287 | 16.1 | 24.1 | 0.00 | 0.33 | 0.23 | 91 | 1013.2 |
| 20260902171514 | 17 | 232 | 14.5 | 22.5 | 0.00 | 0.33 | 0.23 | 89 | 1013.1 |
| 20260902165515 | 16 | 232 | 11.3 | 25.7 | 0.00 | 0.33 | 0.23 | 90 | 1013.3 |
| 20260902164515 | 16 | 233 | 19.3 | 25.7 | 0.00 | 0.33 | 0.23 | 90 | 1013.3 |
| 20260902161515 | 17 | 197 | 16.1 | 27.4 | 0.00 | 0.33 | 0.23 | 89 | 1013.4 |
| 20260902154514 | 16 | 233 | 16.1 | 24.1 | 0.00 | 0.33 | 0.23 | 90 | 1013.5 |
| 20260902152514 | 16 | 277 | 14.5 | 24.1 | 0.00 | 0.33 | 0.23 | 91 | 1013.6 |
| 20260902151514 | 16 | 221 | 14.5 | 25.7 | 0.00 | 0.33 | 0.23 | 91 | 1013.7 |
| 20260902145514 | 16 | 246 | 16.1 | 27.4 | 0.00 | 0.33 | 0.23 | 92 | 1013.7 |
| 20260902144514 | 16 | 222 | 12.9 | 25.7 | 0.00 | 0.33 | 0.23 | 93 | 1013.6 |
| 20260902140514 | 16 | 237 | 9.7 | 20.9 | 0.05 | 0.33 | 0.23 | 93 | 1013.7 |
| 20260902135514 | 15 | 248 | 9.7 | 16.1 | 0.13 | 0.33 | 0.23 | 93 | 1013.7 |
| 20260902134515 | 15 | 237 | 6.4 | 14.5 | 0.23 | 0.33 | 0.23 | 93 | 1013.7 |
| 20260902132514 | 15 | 237 | 9.7 | 16.1 | 0.23 | 0.33 | 0.23 | 92 | 1013.9 |
| 20260902131514 | 15 | 237 | 9.7 | 20.9 | 0.23 | 0.33 | 0.23 | 91 | 1014.0 |
| 20260902125515 | 16 | 315 | 27.4 | 45.1 | 0.13 | 0.23 | 0.13 | 84 | 1013.9 |
| 20260902124514 | 18 | 254 | 19.3 | 25.7 | 0.00 | 0.10 | 0.00 | 84 | 1013.7 |
| 20260902122514 | 19 | 233 | 16.1 | 27.4 | 0.00 | 0.10 | 0.00 | 80 | 1013.7 |
| 20260902120515 | 20 | 247 | 17.7 | 32.2 | 0.00 | 0.10 | 0.00 | 78 | 1013.8 |
| 20260902115515 | 19 | 228 | 16.1 | 37.0 | 0.00 | 0.10 | 0.00 | 77 | 1013.9 |
| 20260902114515 | 19 | 280 | 16.1 | 33.8 | 0.00 | 0.10 | 0.00 | 76 | 1013.8 |
| 20260902113514 | 20 | 244 | 19.3 | 33.8 | 0.00 | 0.10 | 0.00 | 76 | 1013.9 |
| 20260902111515 | 20 | 229 | 17.7 | 35.4 | 0.00 | 0.10 | 0.00 | 74 | 1013.9 |
| 20260902105514 | 20 | 236 | 20.9 | 33.8 | 0.00 | 0.10 | 0.00 | 76 | 1014.0 |
| 20260902104514 | 20 | 241 | 22.5 | 32.2 | 0.00 | 0.10 | 0.00 | 76 | 1014.0 |
| 20260902094515 | 19 | 248 | 20.9 | 33.8 | 0.00 | 0.10 | 0.00 | 78 | 1014.0 |
| 20260902091514 | 18 | 252 | 16.1 | 27.4 | 0.00 | 0.10 | 0.00 | 82 | 1014.1 |
| 20260902085514 | 18 | 313 | 16.1 | 27.4 | 0.00 | 0.10 | 0.00 | 83 | 1014.1 |
| 20260902084514 | 18 | 231 | 19.3 | 25.7 | 0.00 | 0.10 | 0.00 | 83 | 1014.1 |
| 20260902083514 | 18 | 307 | 12.9 | 20.9 | 0.00 | 0.10 | 0.00 | 86 | 1014.2 |
| 20260902081515 | 17 | 295 | 9.7 | 25.7 | 0.00 | 0.10 | 0.00 | 87 | 1014.1 |
| 20260902080515 | 17 | 236 | 20.9 | 27.4 | 0.00 | 0.10 | 0.00 | 87 | 1014.2 |
| 20260902075514 | 17 | 235 | 14.5 | 25.7 | 0.00 | 0.10 | 0.00 | 88 | 1014.1 |
| 20260902070515 | 17 | 223 | 14.5 | 25.7 | 0.00 | 0.10 | 0.00 | 90 | 1013.8 |
| 20260902065514 | 16 | 233 | 16.1 | 24.1 | 0.00 | 0.10 | 0.00 | 90 | 1013.9 |
| 20260902064516 | 16 | 234 | 14.5 | 24.1 | 0.00 | 0.10 | 0.00 | 90 | 1013.9 |
| 20260902063514 | 16 | 244 | 17.7 | 27.4 | 0.00 | 0.10 | 0.00 | 91 | 1013.9 |
| 20260902060515 | 16 | 228 | 14.5 | 24.1 | 0.00 | 0.10 | 0.00 | 91 | 1013.9 |
| 20260902051515 | 15 | 251 | 11.3 | 20.9 | 0.00 | 0.10 | 0.00 | 92 | 1013.9 |
| 20260902041515 | 15 | 230 | 11.3 | 22.5 | 0.00 | 0.10 | 0.00 | 92 | 1013.8 |
| 20260902034514 | 15 | 234 | 9.7 | 14.5 | 0.00 | 0.10 | 0.00 | 92 | 1013.9 |
| 20260902033514 | 15 | 217 | 9.7 | 19.3 | 0.00 | 0.10 | 0.00 | 92 | 1014.0 |
| 20260902032514 | 15 | 218 | 8.0 | 14.5 | 0.00 | 0.10 | 0.00 | 92 | 1014.0 |
| 20260902031514 | 15 | 232 | 8.0 | 16.1 | 0.00 | 0.10 | 0.00 | 92 | 1014.0 |
| 20260902024515 | 14 | 225 | 9.7 | 12.9 | 0.00 | 0.10 | 0.00 | 92 | 1014.1 |
| 20260902023514 | 13 | 219 | 6.4 | 12.9 | 0.00 | 0.10 | 0.00 | 92 | 1014.1 |
| 20260902020515 | 13 | 224 | 8.0 | 12.9 | 0.00 | 0.10 | 0.00 | 91 | 1014.0 |
| 20260902014515 | 13 | 220 | 3.2 | 9.7 | 0.00 | 0.10 | 0.00 | 91 | 1014.0 |